Time,TemperatureF,DewpointF,PressureIn,WindDirection,WindDirectionDegrees,WindSpeedMPH,WindSpeedGustMPH,Humidity,HourlyPrecipIn,Conditions,Clouds,dailyrainin,SoftwareType,DateUTC
2017-03-24 00:01:00,69.9,52.0,29.67,SSE,159,10.0,14.0,53,0.00,,,0.00,Wunderground v.1.15,2017-03-24 05:01:00,
2017-03-24 00:07:00,69.8,51.9,29.67,SSE,166,15.0,15.0,53,0.00,,,0.00,Wunderground v.1.15,2017-03-24 05:07:00,
2017-03-24 00:12:00,69.8,51.9,29.67,SSW,195,9.0,13.0,53,0.00,,,0.00,Wunderground v.1.15,2017-03-24 05:12:00,
2017-03-24 00:17:00,69.8,51.9,29.67,SE,129,4.0,13.0,53,0.00,,,0.00,Wunderground v.1.15,2017-03-24 05:17:00,
2017-03-24 00:22:00,69.8,51.9,29.67,South,185,10.0,10.0,53,0.00,,,0.00,Wunderground v.1.15,2017-03-24 05:22:00,
2017-03-24 00:27:00,69.9,52.5,29.67,South,189,4.0,14.0,54,0.00,,,0.00,Wunderground v.1.15,2017-03-24 05:27:00,
2017-03-24 00:33:00,70.0,52.1,29.67,South,169,12.0,12.0,53,0.00,,,0.00,Wunderground v.1.15,2017-03-24 05:33:00,
2017-03-24 00:38:00,70.1,52.2,29.67,ESE,122,0.0,12.0,53,0.00,,,0.00,Wunderground v.1.15,2017-03-24 05:38:00,
2017-03-24 00:43:00,70.2,52.3,29.68,SSW,201,0.0,4.0,53,0.00,,,0.00,Wunderground v.1.15,2017-03-24 05:43:00,
2017-03-24 00:48:00,70.3,52.4,29.69,South,185,0.0,7.0,53,0.00,,,0.00,Wunderground v.1.15,2017-03-24 05:48:00,
2017-03-24 00:53:00,70.3,52.4,29.70,South,185,0.0,2.0,53,0.00,,,0.00,Wunderground v.1.15,2017-03-24 05:53:00,
2017-03-24 00:59:00,70.4,52.4,29.70,SSW,208,0.0,2.0,53,0.00,,,0.00,Wunderground v.1.15,2017-03-24 05:59:00,
2017-03-24 01:04:00,70.4,52.4,29.71,SE,146,0.0,0.0,53,0.00,,,0.00,Wunderground v.1.15,2017-03-24 06:04:00,
2017-03-24 01:09:00,70.4,52.4,29.71,SSW,194,5.0,7.0,53,0.00,,,0.00,Wunderground v.1.15,2017-03-24 06:09:00,
2017-03-24 01:14:00,70.5,52.5,29.71,SSW,200,1.0,6.0,53,0.00,,,0.00,Wunderground v.1.15,2017-03-24 06:14:00,
2017-03-24 01:19:00,70.6,52.6,29.72,SSW,197,4.0,6.0,53,0.00,,,0.00,Wunderground v.1.15,2017-03-24 06:19:00,
2017-03-24 01:24:00,70.4,52.4,29.72,SSW,194,4.0,4.0,53,0.00,,,0.00,Wunderground v.1.15,2017-03-24 06:24:00,
2017-03-24 01:29:00,70.4,52.4,29.72,South,169,6.0,8.0,53,0.00,,,0.00,Wunderground v.1.15,2017-03-24 06:29:00,
2017-03-24 01:34:00,70.5,52.5,29.73,SSW,206,1.0,8.0,53,0.00,,,0.00,Wunderground v.1.15,2017-03-24 06:34:00,
2017-03-24 01:39:00,70.5,52.5,29.73,SSW,201,2.0,8.0,53,0.00,,,0.00,Wunderground v.1.15,2017-03-24 06:39:00,
2017-03-24 01:44:00,70.4,52.4,29.74,SSW,198,9.0,9.0,53,0.00,,,0.00,Wunderground v.1.15,2017-03-24 06:44:00,
2017-03-24 01:49:00,70.4,52.4,29.74,SSW,205,5.0,9.0,53,0.00,,,0.00,Wunderground v.1.15,2017-03-24 06:49:00,
2017-03-24 01:54:00,70.2,52.8,29.75,SW,216,4.0,6.0,54,0.00,,,0.00,Wunderground v.1.15,2017-03-24 06:54:00,
2017-03-24 02:00:00,70.1,52.7,29.75,South,171,4.0,5.0,54,0.00,,,0.00,Wunderground v.1.15,2017-03-24 07:00:00,
2017-03-24 02:05:00,70.0,52.6,29.75,SSW,193,2.0,7.0,54,0.00,,,0.00,Wunderground v.1.15,2017-03-24 07:05:00,
2017-03-24 02:10:00,69.9,52.5,29.74,South,175,3.0,4.0,54,0.00,,,0.00,Wunderground v.1.15,2017-03-24 07:10:00,
2017-03-24 02:15:00,69.7,52.8,29.74,South,175,8.0,8.0,55,0.00,,,0.00,Wunderground v.1.15,2017-03-24 07:15:00,
2017-03-24 02:20:00,69.5,52.6,29.74,SSE,165,3.0,5.0,55,0.00,,,0.00,Wunderground v.1.15,2017-03-24 07:20:00,
2017-03-24 02:25:00,69.4,52.5,29.74,SSE,153,5.0,8.0,55,0.00,,,0.00,Wunderground v.1.15,2017-03-24 07:25:00,
2017-03-24 02:30:00,69.2,52.3,29.73,South,185,6.0,9.0,55,0.00,,,0.00,Wunderground v.1.15,2017-03-24 07:30:00,
2017-03-24 02:35:00,69.1,52.2,29.73,South,180,2.0,9.0,55,0.00,,,0.00,Wunderground v.1.15,2017-03-24 07:35:00,
2017-03-24 02:40:00,68.9,52.6,29.73,SSW,192,3.0,6.0,56,0.00,,,0.00,Wunderground v.1.15,2017-03-24 07:40:00,
2017-03-24 02:45:00,68.7,52.4,29.72,SSE,158,4.0,9.0,56,0.00,,,0.00,Wunderground v.1.15,2017-03-24 07:45:00,
2017-03-24 02:50:00,68.5,52.2,29.72,SSE,147,2.0,6.0,56,0.00,,,0.00,Wunderground v.1.15,2017-03-24 07:50:00,
2017-03-24 02:55:00,68.4,52.6,29.72,South,175,0.0,7.0,57,0.00,,,0.00,Wunderground v.1.15,2017-03-24 07:55:00,
2017-03-24 03:00:00,68.2,52.4,29.71,SSE,156,7.0,10.0,57,0.00,,,0.00,Wunderground v.1.15,2017-03-24 08:00:00,
2017-03-24 03:05:00,68.2,52.4,29.71,South,189,5.0,11.0,57,0.00,,,0.00,Wunderground v.1.15,2017-03-24 08:05:00,
2017-03-24 03:10:00,68.1,52.3,29.71,SE,145,6.0,7.0,57,0.00,,,0.00,Wunderground v.1.15,2017-03-24 08:10:00,
2017-03-24 03:15:00,68.0,52.2,29.70,South,180,6.0,12.0,57,0.00,,,0.00,Wunderground v.1.15,2017-03-24 08:15:00,
2017-03-24 03:25:00,67.9,52.1,29.70,South,185,0.0,11.0,57,0.00,,,0.00,Wunderground v.1.15,2017-03-24 08:25:00,
2017-03-24 03:30:00,67.8,52.0,29.69,SSE,153,3.0,8.0,57,0.00,,,0.00,Wunderground v.1.15,2017-03-24 08:30:00,
2017-03-24 03:35:00,67.8,52.0,29.69,SSE,166,6.0,10.0,57,0.00,,,0.00,Wunderground v.1.15,2017-03-24 08:35:00,
2017-03-24 03:40:00,67.8,52.0,29.69,SSE,165,0.0,4.0,57,0.00,,,0.00,Wunderground v.1.15,2017-03-24 08:40:00,
2017-03-24 03:45:00,67.8,52.0,29.69,SSW,208,8.0,12.0,57,0.00,,,0.00,Wunderground v.1.15,2017-03-24 08:45:00,
2017-03-24 03:50:00,67.8,51.5,29.69,SSW,197,1.0,10.0,56,0.00,,,0.00,Wunderground v.1.15,2017-03-24 08:50:00,
2017-03-24 03:55:00,67.8,51.5,29.68,SSW,195,5.0,14.0,56,0.00,,,0.00,Wunderground v.1.15,2017-03-24 08:55:00,
2017-03-24 04:00:00,67.7,51.4,29.68,South,175,6.0,9.0,56,0.00,,,0.00,Wunderground v.1.15,2017-03-24 09:00:00,
2017-03-24 04:05:00,67.8,51.5,29.68,SSE,151,1.0,12.0,56,0.00,,,0.00,Wunderground v.1.15,2017-03-24 09:05:00,
2017-03-24 04:10:00,67.7,51.4,29.67,SE,129,9.0,9.0,56,0.00,,,0.00,Wunderground v.1.15,2017-03-24 09:10:00,
2017-03-24 04:15:00,67.7,51.4,29.67,South,169,3.0,11.0,56,0.00,,,0.00,Wunderground v.1.15,2017-03-24 09:15:00,
2017-03-24 04:16:00,67.7,51.4,29.67,SSE,149,3.0,11.0,56,0.00,,,0.00,Wunderground v.1.15,2017-03-24 09:16:00,
2017-03-24 04:21:00,67.7,51.4,29.67,SSE,162,8.0,10.0,56,0.00,,,0.00,Wunderground v.1.15,2017-03-24 09:21:00,
2017-03-24 04:26:00,67.7,51.4,29.67,South,180,11.0,17.0,56,0.00,,,0.00,Wunderground v.1.15,2017-03-24 09:26:00,
2017-03-24 04:31:00,67.6,51.3,29.67,South,185,1.0,12.0,56,0.00,,,0.00,Wunderground v.1.15,2017-03-24 09:31:00,
2017-03-24 04:36:00,67.6,51.3,29.67,SSE,156,5.0,16.0,56,0.00,,,0.00,Wunderground v.1.15,2017-03-24 09:36:00,
2017-03-24 04:41:00,67.6,50.9,29.67,SSW,204,6.0,9.0,55,0.00,,,0.00,Wunderground v.1.15,2017-03-24 09:41:00,
2017-03-24 04:46:00,67.5,50.8,29.66,SSE,157,3.0,14.0,55,0.00,,,0.00,Wunderground v.1.15,2017-03-24 09:46:00,
2017-03-24 04:56:00,67.4,50.7,29.66,SE,143,0.0,12.0,55,0.00,,,0.00,Wunderground v.1.15,2017-03-24 09:56:00,
2017-03-24 05:01:00,67.4,50.7,29.66,SSW,204,4.0,10.0,55,0.00,,,0.00,Wunderground v.1.15,2017-03-24 10:01:00,
2017-03-24 05:06:00,67.3,50.6,29.66,SE,132,6.0,16.0,55,0.00,,,0.00,Wunderground v.1.15,2017-03-24 10:06:00,
2017-03-24 05:11:00,67.3,50.6,29.65,SSE,157,0.0,9.0,55,0.00,,,0.00,Wunderground v.1.15,2017-03-24 10:11:00,
2017-03-24 05:16:00,67.4,50.7,29.65,SE,143,11.0,17.0,55,0.00,,,0.00,Wunderground v.1.15,2017-03-24 10:16:00,
2017-03-24 05:21:00,67.5,50.3,29.65,SE,139,7.0,11.0,54,0.00,,,0.00,Wunderground v.1.15,2017-03-24 10:21:00,
2017-03-24 05:26:00,67.5,49.8,29.65,South,175,9.0,15.0,53,0.00,,,0.00,Wunderground v.1.15,2017-03-24 10:26:00,
2017-03-24 05:31:00,67.7,49.9,29.64,SSE,153,10.0,13.0,53,0.00,,,0.00,Wunderground v.1.15,2017-03-24 10:31:00,
2017-03-24 05:36:00,67.9,49.6,29.64,SSE,153,14.0,16.0,52,0.00,,,0.00,Wunderground v.1.15,2017-03-24 10:36:00,
2017-03-24 05:41:00,68.1,49.3,29.64,SSE,168,21.0,21.0,51,0.00,,,0.00,Wunderground v.1.15,2017-03-24 10:41:00,
2017-03-24 05:46:00,68.4,48.5,29.64,South,175,7.0,23.0,49,0.00,,,0.00,Wunderground v.1.15,2017-03-24 10:46:00,
2017-03-24 05:51:00,68.6,48.7,29.64,SSE,158,14.0,16.0,49,0.00,,,0.00,Wunderground v.1.15,2017-03-24 10:51:00,
2017-03-24 05:56:00,68.7,48.2,29.64,SE,132,14.0,17.0,48,0.00,,,0.00,Wunderground v.1.15,2017-03-24 10:56:00,
2017-03-24 06:01:00,68.8,48.3,29.65,South,175,1.0,9.0,48,0.00,,,0.00,Wunderground v.1.15,2017-03-24 11:01:00,
2017-03-24 06:06:00,68.8,48.3,29.65,South,190,1.0,13.0,48,0.00,,,0.00,Wunderground v.1.15,2017-03-24 11:06:00,
2017-03-24 06:11:00,68.8,48.3,29.65,SSE,151,8.0,10.0,48,0.00,,,0.00,Wunderground v.1.15,2017-03-24 11:11:00,
2017-03-24 06:16:00,68.7,48.2,29.66,South,185,11.0,18.0,48,0.00,,,0.00,Wunderground v.1.15,2017-03-24 11:16:00,
2017-03-24 06:21:00,68.6,48.1,29.66,SE,135,9.0,14.0,48,0.00,,,0.00,Wunderground v.1.15,2017-03-24 11:21:00,
2017-03-24 06:26:00,68.5,48.0,29.66,South,180,9.0,18.0,48,0.00,,,0.00,Wunderground v.1.15,2017-03-24 11:26:00,
2017-03-24 06:31:00,68.5,48.0,29.67,SSE,160,5.0,7.0,48,0.00,,,0.00,Wunderground v.1.15,2017-03-24 11:31:00,
2017-03-24 06:36:00,68.4,47.9,29.66,South,175,10.0,15.0,48,0.00,,,0.00,Wunderground v.1.15,2017-03-24 11:36:00,
2017-03-24 06:41:00,68.4,47.9,29.67,SSE,156,4.0,12.0,48,0.00,,,0.00,Wunderground v.1.15,2017-03-24 11:41:00,
2017-03-24 06:46:00,68.3,47.3,29.67,SSW,208,10.0,18.0,47,0.00,,,0.00,Wunderground v.1.15,2017-03-24 11:46:00,
2017-03-24 06:51:00,68.3,47.3,29.67,SSE,158,8.0,8.0,47,0.00,,,0.00,Wunderground v.1.15,2017-03-24 11:51:00,
2017-03-24 06:56:00,68.1,47.7,29.67,SE,126,7.0,8.0,48,0.00,,,0.00,Wunderground v.1.15,2017-03-24 11:56:00,
2017-03-24 07:01:00,68.1,47.7,29.67,SE,137,4.0,7.0,48,0.00,,,0.00,Wunderground v.1.15,2017-03-24 12:01:00,
2017-03-24 07:06:00,68.0,47.6,29.68,SSE,163,4.0,14.0,48,0.00,,,0.00,Wunderground v.1.15,2017-03-24 12:06:00,
2017-03-24 07:11:00,67.9,47.5,29.67,South,185,3.0,7.0,48,0.00,,,0.00,Wunderground v.1.15,2017-03-24 12:11:00,
2017-03-24 07:16:00,67.8,47.4,29.68,South,170,5.0,11.0,48,0.00,,,0.00,Wunderground v.1.15,2017-03-24 12:16:00,
2017-03-24 07:21:00,67.7,47.3,29.68,SSE,168,3.0,5.0,48,0.00,,,0.00,Wunderground v.1.15,2017-03-24 12:21:00,
2017-03-24 07:26:00,67.6,47.2,29.68,SSE,149,7.0,10.0,48,0.00,,,0.00,Wunderground v.1.15,2017-03-24 12:26:00,
2017-03-24 07:31:00,67.6,46.6,29.68,South,175,8.0,15.0,47,0.00,,,0.00,Wunderground v.1.15,2017-03-24 12:31:00,
2017-03-24 07:36:00,67.5,46.6,29.68,SE,142,0.0,15.0,47,0.00,,,0.00,Wunderground v.1.15,2017-03-24 12:36:00,
2017-03-24 07:41:00,67.5,46.0,29.68,SSE,167,0.0,8.0,46,0.00,,,0.00,Wunderground v.1.15,2017-03-24 12:41:00,
2017-03-24 07:46:00,67.6,45.5,29.69,SSW,210,0.0,8.0,45,0.00,,,0.00,Wunderground v.1.15,2017-03-24 12:46:00,
2017-03-24 07:51:00,67.6,45.5,29.69,SE,145,0.0,1.0,45,0.00,,,0.00,Wunderground v.1.15,2017-03-24 12:51:00,
2017-03-24 07:56:00,67.5,45.4,29.69,SSE,147,0.0,2.0,45,0.00,,,0.00,Wunderground v.1.15,2017-03-24 12:56:00,
2017-03-24 08:01:00,67.5,44.8,29.69,South,185,8.0,12.0,44,0.00,,,0.00,Wunderground v.1.15,2017-03-24 13:01:00,
2017-03-24 08:06:00,67.5,44.8,29.68,SE,129,2.0,12.0,44,0.00,,,0.00,Wunderground v.1.15,2017-03-24 13:06:00,
2017-03-24 08:11:00,67.4,44.7,29.68,SSE,153,4.0,5.0,44,0.00,,,0.00,Wunderground v.1.15,2017-03-24 13:11:00,
2017-03-24 08:16:00,67.4,44.7,29.68,SSW,202,7.0,9.0,44,0.00,,,0.00,Wunderground v.1.15,2017-03-24 13:16:00,
2017-03-24 08:21:00,67.3,44.6,29.69,South,185,2.0,6.0,44,0.00,,,0.00,Wunderground v.1.15,2017-03-24 13:21:00,
2017-03-24 08:26:00,67.2,44.5,29.70,SSW,196,2.0,11.0,44,0.00,,,0.00,Wunderground v.1.15,2017-03-24 13:26:00,
2017-03-24 08:36:00,67.2,44.5,29.70,SSE,166,4.0,14.0,44,0.00,,,0.00,Wunderground v.1.15,2017-03-24 13:36:00,
2017-03-24 08:41:00,67.2,44.5,29.70,South,189,4.0,14.0,44,0.00,,,0.00,Wunderground v.1.15,2017-03-24 13:41:00,
2017-03-24 08:46:00,67.2,44.5,29.70,SE,142,9.0,14.0,44,0.00,,,0.00,Wunderground v.1.15,2017-03-24 13:46:00,
2017-03-24 08:51:00,67.2,44.5,29.70,SSE,167,5.0,14.0,44,0.00,,,0.00,Wunderground v.1.15,2017-03-24 13:51:00,
2017-03-24 08:56:00,67.2,44.5,29.70,SSE,168,2.0,14.0,44,0.00,,,0.00,Wunderground v.1.15,2017-03-24 13:56:00,
2017-03-24 09:01:00,67.1,44.4,29.70,SSW,194,9.0,13.0,44,0.00,,,0.00,Wunderground v.1.15,2017-03-24 14:01:00,
2017-03-24 09:06:00,67.0,44.9,29.71,South,169,6.0,13.0,45,0.00,,,0.00,Wunderground v.1.15,2017-03-24 14:06:00,
2017-03-24 09:11:00,67.0,44.9,29.71,SW,222,2.0,12.0,45,0.00,,,0.00,Wunderground v.1.15,2017-03-24 14:11:00,
2017-03-24 09:16:00,67.0,44.9,29.72,SSW,195,0.0,12.0,45,0.00,,,0.00,Wunderground v.1.15,2017-03-24 14:16:00,
2017-03-24 09:21:00,67.0,45.5,29.72,SSW,195,0.0,1.0,46,0.00,,,0.00,Wunderground v.1.15,2017-03-24 14:21:00,
2017-03-24 09:26:00,66.9,46.0,29.73,South,180,0.0,1.0,47,0.00,,,0.00,Wunderground v.1.15,2017-03-24 14:26:00,
2017-03-24 09:31:00,66.8,47.6,29.73,SE,137,0.0,0.0,50,0.00,,,0.00,Wunderground v.1.15,2017-03-24 14:31:00,
2017-03-24 09:36:00,66.4,48.7,29.74,South,171,0.0,0.0,53,0.00,,,0.00,Wunderground v.1.15,2017-03-24 14:36:00,
2017-03-24 09:41:00,65.9,48.8,29.74,South,170,0.0,0.0,54,0.00,,,0.00,Wunderground v.1.15,2017-03-24 14:41:00,
2017-03-24 09:46:00,65.6,48.5,29.73,SSW,195,0.0,1.0,54,0.00,,,0.00,Wunderground v.1.15,2017-03-24 14:46:00,
2017-03-24 09:52:00,65.3,48.7,29.73,SSW,193,0.0,0.0,55,0.00,,,0.00,Wunderground v.1.15,2017-03-24 14:52:00,
2017-03-24 09:57:00,65.3,50.1,29.74,South,189,0.0,0.0,58,0.00,,,0.00,Wunderground v.1.15,2017-03-24 14:57:00,
2017-03-24 10:02:00,65.3,50.6,29.73,SSE,166,0.0,0.0,59,0.00,,,0.00,Wunderground v.1.15,2017-03-24 15:02:00,
2017-03-24 10:07:00,65.2,50.0,29.74,South,175,0.0,1.0,58,0.00,,,0.00,Wunderground v.1.15,2017-03-24 15:07:00,
2017-03-24 10:12:00,65.2,50.0,29.74,SSE,166,0.0,0.0,58,0.00,,,0.00,Wunderground v.1.15,2017-03-24 15:12:00,
2017-03-24 10:17:00,65.3,50.6,29.74,SSE,166,0.0,0.0,59,0.00,,,0.00,Wunderground v.1.15,2017-03-24 15:17:00,
2017-03-24 10:22:00,65.4,50.7,29.74,SSE,166,0.0,0.0,59,0.00,,,0.00,Wunderground v.1.15,2017-03-24 15:22:00,
2017-03-24 10:27:00,65.6,50.9,29.74,South,191,0.0,0.0,59,0.00,,,0.00,Wunderground v.1.15,2017-03-24 15:27:00,
2017-03-24 10:32:00,65.8,51.5,29.74,SSE,163,0.0,1.0,60,0.00,,,0.00,Wunderground v.1.15,2017-03-24 15:32:00,
2017-03-24 10:37:00,66.1,51.4,29.74,SSE,153,6.0,11.0,59,0.00,,,0.00,Wunderground v.1.15,2017-03-24 15:37:00,
2017-03-24 10:42:00,66.3,52.0,29.74,SE,140,4.0,13.0,60,0.00,,,0.00,Wunderground v.1.15,2017-03-24 15:42:00,
2017-03-24 10:47:00,66.5,51.7,29.74,South,185,7.0,13.0,59,0.00,,,0.00,Wunderground v.1.15,2017-03-24 15:47:00,
2017-03-24 10:52:00,66.7,51.9,29.75,SE,142,4.0,9.0,59,0.00,,,0.00,Wunderground v.1.15,2017-03-24 15:52:00,
2017-03-24 10:57:00,66.9,52.1,29.75,South,175,3.0,9.0,59,0.00,,,0.00,Wunderground v.1.15,2017-03-24 15:57:00,
2017-03-24 11:02:00,67.0,52.2,29.76,South,180,12.0,12.0,59,0.00,,,0.00,Wunderground v.1.15,2017-03-24 16:02:00,
2017-03-24 11:07:00,67.1,52.3,29.75,South,185,5.0,12.0,59,0.00,,,0.00,Wunderground v.1.15,2017-03-24 16:07:00,
2017-03-24 11:12:00,67.1,52.3,29.75,SSE,153,10.0,17.0,59,0.00,,,0.00,Wunderground v.1.15,2017-03-24 16:12:00,
2017-03-24 11:17:00,67.2,52.4,29.76,SSW,192,3.0,17.0,59,0.00,,,0.00,Wunderground v.1.15,2017-03-24 16:17:00,
2017-03-24 11:22:00,67.3,52.0,29.76,SE,133,5.0,9.0,58,0.00,,,0.00,Wunderground v.1.15,2017-03-24 16:22:00,
2017-03-24 11:27:00,67.3,52.0,29.76,SSE,163,11.0,11.0,58,0.00,,,0.00,Wunderground v.1.15,2017-03-24 16:27:00,
2017-03-24 11:32:00,67.3,52.5,29.76,SE,139,8.0,9.0,59,0.00,,,0.00,Wunderground v.1.15,2017-03-24 16:32:00,
2017-03-24 11:37:00,67.3,52.5,29.76,SSE,161,5.0,12.0,59,0.00,,,0.00,Wunderground v.1.15,2017-03-24 16:37:00,
2017-03-24 11:42:00,67.6,52.8,29.75,SSW,198,10.0,13.0,59,0.00,,,0.00,Wunderground v.1.15,2017-03-24 16:42:00,
2017-03-24 11:47:00,67.9,53.0,29.76,SSE,162,6.0,13.0,59,0.00,,,0.00,Wunderground v.1.15,2017-03-24 16:47:00,
2017-03-24 11:52:00,68.0,52.7,29.76,South,175,6.0,9.0,58,0.00,,,0.00,Wunderground v.1.15,2017-03-24 16:52:00,
2017-03-24 11:57:00,68.1,53.2,29.76,South,189,7.0,10.0,59,0.00,,,0.00,Wunderground v.1.15,2017-03-24 16:57:00,
2017-03-24 12:02:00,68.3,52.9,29.76,SW,216,4.0,12.0,58,0.00,,,0.00,Wunderground v.1.15,2017-03-24 17:02:00,
2017-03-24 12:07:00,68.3,52.9,29.76,South,175,13.0,15.0,58,0.00,,,0.00,Wunderground v.1.15,2017-03-24 17:07:00,
2017-03-24 12:12:00,68.3,52.9,29.76,SSE,162,9.0,17.0,58,0.00,,,0.00,Wunderground v.1.15,2017-03-24 17:12:00,
2017-03-24 12:17:00,68.5,53.1,29.75,SSE,168,5.0,17.0,58,0.00,,,0.00,Wunderground v.1.15,2017-03-24 17:17:00,
2017-03-24 12:22:00,68.9,53.5,29.75,South,180,3.0,12.0,58,0.00,,,0.00,Wunderground v.1.15,2017-03-24 17:22:00,
2017-03-24 12:27:00,69.1,53.7,29.75,ESE,117,3.0,12.0,58,0.00,,,0.00,Wunderground v.1.15,2017-03-24 17:27:00,
2017-03-24 12:32:00,69.3,53.4,29.74,SE,134,4.0,11.0,57,0.00,,,0.00,Wunderground v.1.15,2017-03-24 17:32:00,
2017-03-24 12:37:00,69.5,53.6,29.75,SSE,160,7.0,12.0,57,0.00,,,0.00,Wunderground v.1.15,2017-03-24 17:37:00,
2017-03-24 12:42:00,69.5,53.6,29.75,SSW,193,8.0,16.0,57,0.00,,,0.00,Wunderground v.1.15,2017-03-24 17:42:00,
2017-03-24 12:47:00,69.4,53.5,29.75,SSE,156,6.0,16.0,57,0.00,,,0.00,Wunderground v.1.15,2017-03-24 17:47:00,
2017-03-24 12:52:00,69.2,53.8,29.75,SE,141,4.0,10.0,58,0.00,,,0.00,Wunderground v.1.15,2017-03-24 17:52:00,
2017-03-24 13:02:00,68.9,54.0,29.76,SSE,167,2.0,7.0,59,0.00,,,0.00,Wunderground v.1.15,2017-03-24 18:02:00,
2017-03-24 13:07:00,68.8,53.9,29.76,SSE,153,6.0,10.0,59,0.00,,,0.00,Wunderground v.1.15,2017-03-24 18:07:00,
2017-03-24 13:12:00,68.7,53.8,29.76,SE,145,10.0,10.0,59,0.00,,,0.00,Wunderground v.1.15,2017-03-24 18:12:00,
2017-03-24 13:17:00,68.6,54.2,29.76,SSE,161,2.0,13.0,60,0.00,,,0.00,Wunderground v.1.15,2017-03-24 18:17:00,
2017-03-24 13:22:00,68.5,54.1,29.76,SSE,154,9.0,9.0,60,0.00,,,0.00,Wunderground v.1.15,2017-03-24 18:22:00,
2017-03-24 13:27:00,68.4,54.4,29.76,SSE,165,7.0,12.0,61,0.00,,,0.00,Wunderground v.1.15,2017-03-24 18:27:00,
2017-03-24 13:32:00,68.4,54.4,29.75,SSE,156,0.0,5.0,61,0.00,,,0.00,Wunderground v.1.15,2017-03-24 18:32:00,
2017-03-24 13:37:00,68.3,54.8,29.75,SSE,147,7.0,9.0,62,0.00,,,0.00,Wunderground v.1.15,2017-03-24 18:37:00,
2017-03-24 13:42:00,68.3,54.8,29.75,South,171,1.0,6.0,62,0.00,,,0.00,Wunderground v.1.15,2017-03-24 18:42:00,
2017-03-24 13:47:00,68.3,54.8,29.75,SSE,158,1.0,9.0,62,0.00,,,0.00,Wunderground v.1.15,2017-03-24 18:47:00,
2017-03-24 13:52:00,68.2,54.7,29.74,SSE,149,1.0,6.0,62,0.00,,,0.00,Wunderground v.1.15,2017-03-24 18:52:00,
2017-03-24 13:57:00,68.2,54.7,29.75,SSE,151,6.0,9.0,62,0.00,,,0.00,Wunderground v.1.15,2017-03-24 18:57:00,
2017-03-24 14:02:00,68.2,54.7,29.75,SSE,151,4.0,8.0,62,0.00,,,0.00,Wunderground v.1.15,2017-03-24 19:02:00,
2017-03-24 14:07:00,68.2,55.1,29.76,SE,143,2.0,10.0,63,0.00,,,0.00,Wunderground v.1.15,2017-03-24 19:07:00,
2017-03-24 14:12:00,68.2,55.1,29.75,SSE,150,10.0,11.0,63,0.00,,,0.00,Wunderground v.1.15,2017-03-24 19:12:00,
2017-03-24 14:17:00,68.2,55.1,29.75,SSE,147,2.0,11.0,63,0.00,,,0.00,Wunderground v.1.15,2017-03-24 19:17:00,
2017-03-24 14:22:00,68.3,55.6,29.75,SE,133,4.0,7.0,64,0.00,,,0.00,Wunderground v.1.15,2017-03-24 19:22:00,
2017-03-24 14:27:00,68.2,56.8,29.74,SSE,158,4.0,8.0,67,0.00,,,0.00,Wunderground v.1.15,2017-03-24 19:27:00,
2017-03-24 14:32:00,68.1,56.7,29.75,SSE,154,4.0,8.0,67,0.00,,,0.00,Wunderground v.1.15,2017-03-24 19:32:00,
2017-03-24 14:37:00,68.0,56.6,29.75,SSE,162,5.0,11.0,67,0.00,,,0.00,Wunderground v.1.15,2017-03-24 19:37:00,
2017-03-24 14:42:00,68.0,56.6,29.75,SE,131,7.0,12.0,67,0.00,,,0.00,Wunderground v.1.15,2017-03-24 19:42:00,
2017-03-24 14:47:00,68.1,56.7,29.75,SSE,158,6.0,12.0,67,0.00,,,0.00,Wunderground v.1.15,2017-03-24 19:47:00,
2017-03-24 14:52:00,68.1,56.3,29.75,SSE,149,6.0,10.0,66,0.00,,,0.00,Wunderground v.1.15,2017-03-24 19:52:00,
2017-03-24 14:57:00,68.3,56.9,29.75,SSW,192,6.0,10.0,67,0.00,,,0.00,Wunderground v.1.15,2017-03-24 19:57:00,
2017-03-24 15:02:00,68.4,56.6,29.74,SSE,168,2.0,11.0,66,0.00,,,0.00,Wunderground v.1.15,2017-03-24 20:02:00,
2017-03-24 15:07:00,68.6,57.2,29.73,ESE,117,6.0,11.0,67,0.00,,,0.00,Wunderground v.1.15,2017-03-24 20:07:00,
2017-03-24 15:12:00,68.8,56.6,29.73,SE,143,0.0,7.0,65,0.00,,,0.00,Wunderground v.1.15,2017-03-24 20:12:00,
2017-03-24 15:17:00,68.9,56.6,29.72,SSE,148,0.0,7.0,65,0.00,,,0.00,Wunderground v.1.15,2017-03-24 20:17:00,
2017-03-24 15:22:00,69.1,56.8,29.73,SE,138,0.0,1.0,65,0.00,,,0.00,Wunderground v.1.15,2017-03-24 20:22:00,
2017-03-24 15:27:00,69.4,57.1,29.73,South,185,0.0,1.0,65,0.00,,,0.00,Wunderground v.1.15,2017-03-24 20:27:00,
2017-03-24 15:32:00,69.7,57.0,29.74,SSE,168,0.0,1.0,64,0.00,,,0.00,Wunderground v.1.15,2017-03-24 20:32:00,
2017-03-24 15:37:00,70.0,56.8,29.73,SW,216,0.0,1.0,63,0.00,,,0.00,Wunderground v.1.15,2017-03-24 20:37:00,
2017-03-24 15:42:00,70.5,57.3,29.72,SSE,154,0.0,0.0,63,0.00,,,0.00,Wunderground v.1.15,2017-03-24 20:42:00,
2017-03-24 15:47:00,70.8,57.1,29.73,SSW,193,2.0,10.0,62,0.00,,,0.00,Wunderground v.1.15,2017-03-24 20:47:00,
2017-03-24 15:52:00,70.8,57.1,29.73,South,180,1.0,6.0,62,0.00,,,0.00,Wunderground v.1.15,2017-03-24 20:52:00,
2017-03-24 15:57:00,70.8,56.7,29.72,SE,144,4.0,6.0,61,0.00,,,0.00,Wunderground v.1.15,2017-03-24 20:57:00,
2017-03-24 16:02:00,70.6,56.9,29.72,SSE,149,4.0,7.0,62,0.00,,,0.00,Wunderground v.1.15,2017-03-24 21:02:00,
2017-03-24 16:07:00,70.8,57.1,29.72,SE,141,1.0,7.0,62,0.00,,,0.00,Wunderground v.1.15,2017-03-24 21:07:00,
2017-03-24 16:12:00,71.2,58.0,29.73,SE,143,10.0,10.0,63,0.00,,,0.00,Wunderground v.1.15,2017-03-24 21:12:00,
2017-03-24 16:17:00,70.6,57.8,29.72,SE,131,4.0,11.0,64,0.00,,,0.00,Wunderground v.1.15,2017-03-24 21:17:00,
2017-03-24 16:22:00,70.1,57.8,29.72,ESE,111,8.0,8.0,65,0.00,,,0.00,Wunderground v.1.15,2017-03-24 21:22:00,
2017-03-24 16:27:00,70.0,57.3,29.72,ESE,123,3.0,11.0,64,0.00,,,0.00,Wunderground v.1.15,2017-03-24 21:27:00,
2017-03-24 16:32:00,69.9,57.2,29.72,SE,133,3.0,9.0,64,0.00,,,0.00,Wunderground v.1.15,2017-03-24 21:32:00,
2017-03-24 16:37:00,69.6,57.3,29.72,SSE,149,5.0,12.0,65,0.00,,,0.00,Wunderground v.1.15,2017-03-24 21:37:00,
2017-03-24 16:42:00,69.4,57.1,29.73,SSE,151,1.0,8.0,65,0.00,,,0.00,Wunderground v.1.15,2017-03-24 21:42:00,